Regional Weather Roundup
Issued by NWS Goodland, KS

Home | Current Version | Previous Version | Graphics & Text | Print | Product List | Glossary On
Versions: 1 2 3 4 5 6 7 8 9 10 11 12 13 14 15 16 17 18 19 20 21 22 23 24 25 26 27 28 29 30 31 32 33 34 35 36 37 38 39 40 41 42 43 44 45 46 47 48 49 50
000
ASUS43 KGLD 251559
RWRGLD

GOODLAND FORECAST AREA HOURLY WEATHER ROUNDUP
NATIONAL WEATHER SERVICE GOODLAND KS
1000 AM MDT SAT MAR 25 2017

...OFFICIAL OBSERVATIONS...

CITY           SKY/WX    TMP DP  RH WIND       PRES   REMARKS
GOODLAND KS    SUNNY     47  35  63 N13       30.06S
HILL CITY KS   CLOUDY    41  38  89 N13       30.03S
IMPERIAL NEB   SUNNY     47  35  63 N3        30.06S
MCCOOK NEB     SUNNY     46  38  73 NW12      30.04F
AKRON CO       SUNNY     50  27  40 S7        30.04F
BURLINGTON CO  SUNNY     48  26  42 N5        30.07F
LIMON CO       SUNNY     42  35  76 SE7       30.07F
$$

...UNOFFICIAL OBSERVATIONS...

CITY           SKY/WX    TMP DP  RH WIND       PRES   REMARKS
LENORA KS        N/A     39  32  76 CALM        N/A
NORTON KS      CLOUDY    39  34  81 NW10      30.03S
SHARON SPRINGS   N/A     48  35  61 NW12G18     N/A
TRENTON NEB      N/A     45  32  60 N8          N/A
YUMA CO        FAIR      46  36  66 SW5       30.06R
$$




USA.gov is the U.S. government's official web portal to all federal, state and local government web resources and services.